Hourly Data Report for July 14, 2021

BANCROFT AUTO
ONTARIO
Current Station Operator: ECCC - MSC

45°04'17.000" N
77°52'44.000" W
330.70 m
616I001
71294
WRK

Download Data

Hourly Data (July 2021)
Hourly Data Report for July 14, 2021
TIME
LST
Temp Definition
°C
Dew Point Definition
°C
Rel Hum Definition
%
Precip. Amount Definition
mm

Wind Dir Definition
10's deg

Wind Spd Definition
km/h
Visibility Definition
km
Stn Press Definition
kPa
Hmdx Definition


Wind Chill Definition


Weather Definition


00:00 21.0 20.3 96 0.0 20 6   97.62 29   LegendNANA
01:00 20.7 19.9 95 0.0 21 8   97.65 28   LegendNANA
02:00 20.4 19.4 94 0.0 21 5   97.60 27   LegendNANA
03:00 19.5 18.5 94 0.0 21 6   97.64     LegendNANA
04:00 19.3 18.1 93 0.0 21 6   97.67     LegendNANA
05:00 19.0 18.0 94 0.0 20 6   97.72     LegendNANA
06:00 19.1 18.1 94 0.0 20 6   97.77     LegendNANA
07:00 20.0 18.3 90 0.0 23 4   97.83 26   LegendNANA
08:00 21.2 17.7 80 0.0 28 5   97.84 27   LegendNANA
09:00 21.9 17.1 74 0.0 26 7   97.86 27   LegendNANA
10:00 22.7 17.1 71 0.0 27 8   97.92 28   LegendNANA
11:00 23.5 15.9 62 0.0 30 11   97.94 28   LegendNANA
12:00 24.8 16.4 60 0.0 26 6   97.95 30   LegendNANA
13:00 25.3 15.2 54 0.0 27 7   97.97 29   LegendNANA
14:00 25.6 15.0 52 0.0 28 8   97.98 30   LegendNANA
15:00 26.1 15.4 52 0.0 27 8   98.00 30   LegendNANA
16:00 25.9 16.9 58 0.0 29 10   97.98 31   LegendNANA
17:00 26.0 17.3 59 0.0 29 7   97.96 31   LegendNANA
18:00 25.5 18.1 64 0.0 29 4   97.94 32   LegendNANA
19:00 23.1 18.6 76 0.0 21 4   97.97 30   LegendNANA
20:00 20.4 18.7 90 0.0 23 2   97.98 27   LegendNANA
21:00 18.6 17.7 94 0.0   0   98.05     LegendNANA
22:00 17.6 16.9 96 0.0   0   98.05     LegendNANA
23:00 16.8 16.3 97 0.0 0 1   97.99     LegendNANA

Notes on Data Quality.

Legend

  • E = Estimated
  • M = Missing
  • NA = Not Available*
  • [empty] = Indicates an unobserved value
Date modified: